Location: Bannatyne
(13.0833°N, 59.5333°W)
Time: 01:52:51
(UTC+00:00)

Explorer 7 - Pass Details

Date: 29 January 2020
Orbit: 485 x 679 km, 50.3° (Epoch: 25 February)

Event Time Altitude Azimuth Distance (km) Brightness Sun altitude
Rises 22:37:00 0° 222° (SW) 2,790 11.5 -10.0°
Reaches altitude 10° 22:39:20 10° 225° (SW) 1,857 10.5 -10.5°
Maximum altitude 22:43:32 69° 309° (NW) 578 7.0 -11.5°
Enters shadow 22:47:18 11° 32° (NNE) 1,678 8.9 -12.4°
Drops below altitude 10° 22:47:29 10° 32° (NNE) 1,745 - -12.4°
Sets 22:49:37 0° 35° (NE) 2,606 - -12.9°
